{"data":{"norad_id":63729,"epoch":"2026-09-21T16:27:55.261728Z","epoch_age_seconds":102301,"freshness":"FRESH","line1":"1 63729U 25088F   26264.68605627  .00000577  00000+0  10464-3 0  9996","line2":"2 63729  51.9027 321.4265 0000343  83.1028 276.9974 14.79928966 76590","mean_motion":14.79928966,"eccentricity":3.43e-5,"inclination_deg":51.9027,"raan_deg":321.4265,"arg_perigee_deg":83.1028,"mean_anomaly_deg":276.9974,"bstar":0.00010464,"rev_number":7659,"period_min":97.301967397265,"perigee_km":629.30799993432,"apogee_km":629.78872715026,"semimajor_km":7007.6853635423,"source":"CELESTRAK","updated_at":"2026-09-22T09:00:29.316300Z"}}